Time,TemperatureF,DewpointF,PressureIn,WindDirection,WindDirectionDegrees,WindSpeedMPH,WindSpeedGustMPH,Humidity,HourlyPrecipIn,Conditions,Clouds,dailyrainin,SolarRadiationWatts/m^2,SoftwareType,DateUTC
2013-10-27 00:02:00,62.0,22.0,-100.00,NW,312,4.0,6.0,21,0.00,,,0.00,1.000000,,2013-10-27 07:02:00,
2013-10-27 00:42:00,60.0,22.0,-100.00,North,349,5.0,7.0,23,0.00,,,0.00,1.000000,,2013-10-27 07:42:00,
2013-10-27 00:52:00,60.0,22.0,-100.00,North,349,5.0,7.0,23,0.00,,,0.00,1.000000,,2013-10-27 07:52:00,
2013-10-27 01:03:00,60.0,22.0,-100.00,North,349,5.0,7.0,23,0.00,,,0.00,1.000000,,2013-10-27 08:03:00,
2013-10-27 01:42:00,68.0,25.0,-100.00,ENE,76,3.0,10.0,20,0.00,,,-99.99,1.000000,,2013-10-27 08:42:00,
2013-10-27 01:52:00,68.0,25.0,-100.00,ENE,76,3.0,10.0,20,0.00,,,-99.99,1.000000,,2013-10-27 08:52:00,
2013-10-27 02:01:00,68.0,25.0,-100.00,ENE,76,3.0,10.0,20,0.00,,,-99.99,1.000000,,2013-10-27 09:01:00,
2013-10-27 02:43:00,58.0,24.0,-100.00,North,352,3.0,6.0,27,0.00,,,0.00,1.000000,,2013-10-27 09:43:00,
2013-10-27 02:54:00,58.0,24.0,-100.00,North,352,3.0,6.0,27,0.00,,,0.00,1.000000,,2013-10-27 09:54:00,
2013-10-27 03:03:00,58.0,24.0,-100.00,North,352,3.0,6.0,27,0.00,,,0.00,1.000000,,2013-10-27 10:03:00,
2013-10-27 03:42:00,59.0,24.0,-100.00,NNE,12,2.0,4.0,26,0.00,,,0.00,1.000000,,2013-10-27 10:42:00,
2013-10-27 03:53:00,59.0,24.0,-100.00,NNE,12,2.0,4.0,26,0.00,,,0.00,1.000000,,2013-10-27 10:53:00,
2013-10-27 04:02:00,59.0,24.0,-100.00,NNE,12,2.0,4.0,26,0.00,,,0.00,1.000000,,2013-10-27 11:02:00,
2013-10-27 04:42:00,58.0,25.0,-100.00,NNW,329,2.0,5.0,28,0.00,,,-99.99,1.000000,,2013-10-27 11:42:00,
2013-10-27 04:52:00,58.0,25.0,-100.00,NNW,329,2.0,5.0,28,0.00,,,-99.99,1.000000,,2013-10-27 11:52:00,
2013-10-27 05:01:00,58.0,25.0,-100.00,NNW,329,2.0,5.0,28,0.00,,,-99.99,1.000000,,2013-10-27 12:01:00,
2013-10-27 05:42:00,59.0,27.0,-100.00,NW,313,2.0,4.0,29,0.00,,,0.00,1.000000,,2013-10-27 12:42:00,
2013-10-27 05:52:00,59.0,27.0,-100.00,NW,313,2.0,4.0,29,0.00,,,0.00,1.000000,,2013-10-27 12:52:00,
2013-10-27 06:02:00,59.0,27.0,-100.00,NW,313,2.0,4.0,29,0.00,,,0.00,1.000000,,2013-10-27 13:02:00,
2013-10-27 06:42:00,57.0,27.0,-100.00,North,358,3.0,5.0,31,0.00,,,0.00,1.000000,,2013-10-27 13:42:00,
2013-10-27 06:52:00,57.0,27.0,-100.00,North,358,3.0,5.0,31,0.00,,,0.00,1.000000,,2013-10-27 13:52:00,
2013-10-27 07:02:00,57.0,27.0,-100.00,North,358,3.0,5.0,31,0.00,,,0.00,1.000000,,2013-10-27 14:02:00,
2013-10-27 07:42:00,57.0,27.0,-100.00,North,349,2.0,5.0,32,0.00,,,0.00,9.000000,,2013-10-27 14:42:00,
2013-10-27 07:52:00,57.0,27.0,-100.00,North,349,2.0,5.0,32,0.00,,,0.00,9.000000,,2013-10-27 14:52:00,
2013-10-27 08:01:00,57.0,27.0,-100.00,North,349,2.0,5.0,32,0.00,,,0.00,9.000000,,2013-10-27 15:01:00,
2013-10-27 08:44:00,63.0,33.0,-100.00,NNW,331,4.0,5.0,32,0.00,,,-99.99,80.000000,,2013-10-27 15:44:00,
2013-10-27 08:54:00,63.0,33.0,-100.00,NNW,331,4.0,5.0,32,0.00,,,-99.99,80.000000,,2013-10-27 15:54:00,
2013-10-27 09:04:00,63.0,33.0,-100.00,NNW,331,4.0,5.0,32,0.00,,,-99.99,80.000000,,2013-10-27 16:04:00,
2013-10-27 09:43:00,77.0,35.0,-100.00,South,187,2.0,5.0,22,0.00,,,0.00,355.000000,,2013-10-27 16:43:00,
2013-10-27 09:53:00,77.0,35.0,-100.00,South,187,2.0,5.0,22,0.00,,,0.00,355.000000,,2013-10-27 16:53:00,
2013-10-27 10:04:00,77.0,35.0,-100.00,South,187,2.0,5.0,22,0.00,,,0.00,355.000000,,2013-10-27 17:04:00,
2013-10-27 10:43:00,82.0,34.0,-100.00,South,186,2.0,5.0,18,0.00,,,0.00,504.000000,,2013-10-27 17:43:00,
2013-10-27 10:53:00,82.0,34.0,-100.00,South,186,2.0,5.0,18,0.00,,,0.00,504.000000,,2013-10-27 17:53:00,
2013-10-27 11:01:00,82.0,34.0,-100.00,South,186,2.0,5.0,18,0.00,,,0.00,504.000000,,2013-10-27 18:01:00,
2013-10-27 11:43:00,85.0,32.0,-100.00,North,349,3.0,7.0,15,0.00,,,0.00,578.000000,,2013-10-27 18:43:00,
2013-10-27 11:52:00,85.0,32.0,-100.00,North,349,3.0,7.0,15,0.00,,,0.00,578.000000,,2013-10-27 18:52:00,
2013-10-27 12:02:00,85.0,32.0,-100.00,North,349,3.0,7.0,15,0.00,,,0.00,578.000000,,2013-10-27 19:02:00,
2013-10-27 12:42:00,89.0,34.0,-100.00,SSE,167,5.0,10.0,14,0.00,,,0.00,684.000000,,2013-10-27 19:42:00,
2013-10-27 12:52:00,89.0,34.0,-100.00,SSE,167,5.0,10.0,14,0.00,,,0.00,684.000000,,2013-10-27 19:52:00,
2013-10-27 13:02:00,89.0,34.0,-100.00,SSE,167,5.0,10.0,14,0.00,,,0.00,684.000000,,2013-10-27 20:02:00,
2013-10-27 13:43:00,91.0,31.0,-100.00,SSE,161,3.0,13.0,12,0.00,,,0.00,727.000000,,2013-10-27 20:43:00,
2013-10-27 13:52:00,91.0,31.0,-100.00,SSE,161,3.0,13.0,12,0.00,,,0.00,727.000000,,2013-10-27 20:52:00,
2013-10-27 14:02:00,91.0,31.0,-100.00,SSE,161,3.0,13.0,12,0.00,,,0.00,727.000000,,2013-10-27 21:02:00,
2013-10-27 14:43:00,90.0,26.0,-100.00,SW,214,7.0,15.0,10,0.00,,,0.00,676.000000,,2013-10-27 21:43:00,
2013-10-27 14:54:00,90.0,26.0,-100.00,SW,214,7.0,15.0,10,0.00,,,0.00,676.000000,,2013-10-27 21:54:00,
2013-10-27 15:04:00,90.0,26.0,-100.00,SW,214,7.0,15.0,10,0.00,,,0.00,676.000000,,2013-10-27 22:04:00,
2013-10-27 15:43:00,90.0,26.0,-100.00,West,266,8.0,14.0,10,0.00,,,0.00,549.000000,,2013-10-27 22:43:00,
2013-10-27 15:54:00,90.0,26.0,-100.00,West,266,8.0,14.0,10,0.00,,,0.00,549.000000,,2013-10-27 22:54:00,
2013-10-27 16:03:00,90.0,26.0,-100.00,West,266,8.0,14.0,10,0.00,,,0.00,549.000000,,2013-10-27 23:03:00,
2013-10-27 16:42:00,89.0,25.0,-100.00,SW,234,5.0,12.0,10,0.00,,,0.00,373.000000,,2013-10-27 23:42:00,
2013-10-27 16:52:00,89.0,25.0,-100.00,SW,234,5.0,12.0,10,0.00,,,0.00,373.000000,,2013-10-27 23:52:00,
2013-10-27 17:02:00,89.0,25.0,-100.00,SW,234,5.0,12.0,10,0.00,,,0.00,373.000000,,2013-10-28 00:02:00,
2013-10-27 17:43:00,86.0,21.0,-100.00,West,275,7.0,15.0,9,0.00,,,0.00,177.000000,,2013-10-28 00:43:00,
2013-10-27 17:52:00,86.0,21.0,-100.00,West,275,7.0,15.0,9,0.00,,,0.00,177.000000,,2013-10-28 00:52:00,
2013-10-27 18:01:00,86.0,21.0,-100.00,West,275,7.0,15.0,9,0.00,,,0.00,177.000000,,2013-10-28 01:01:00,
2013-10-27 18:42:00,80.0,23.0,-100.00,WNW,296,7.0,13.0,12,0.00,,,0.00,17.000000,,2013-10-28 01:42:00,
2013-10-27 18:52:00,80.0,23.0,-100.00,WNW,296,7.0,13.0,12,0.00,,,0.00,17.000000,,2013-10-28 01:52:00,
2013-10-27 19:02:00,80.0,23.0,-100.00,WNW,296,7.0,13.0,12,0.00,,,0.00,17.000000,,2013-10-28 02:02:00,
2013-10-27 19:42:00,78.0,23.0,-100.00,WNW,294,7.0,12.0,13,0.00,,,0.00,1.000000,,2013-10-28 02:42:00,
2013-10-27 19:53:00,78.0,23.0,-100.00,WNW,294,7.0,12.0,13,0.00,,,0.00,1.000000,,2013-10-28 02:53:00,
2013-10-27 20:02:00,78.0,23.0,-100.00,WNW,294,7.0,12.0,13,0.00,,,0.00,1.000000,,2013-10-28 03:02:00,
2013-10-27 20:44:00,76.0,27.0,-100.00,WNW,296,7.0,12.0,16,0.00,,,0.00,1.000000,,2013-10-28 03:44:00,
2013-10-27 20:54:00,76.0,27.0,-100.00,WNW,296,7.0,12.0,16,0.00,,,0.00,1.000000,,2013-10-28 03:54:00,
2013-10-27 21:04:00,76.0,27.0,-100.00,WNW,296,7.0,12.0,16,0.00,,,0.00,1.000000,,2013-10-28 04:04:00,
2013-10-27 21:43:00,71.0,24.0,-100.00,South,174,2.0,10.0,17,0.00,,,0.00,1.000000,,2013-10-28 04:43:00,
2013-10-27 21:53:00,71.0,24.0,-100.00,South,174,2.0,10.0,17,0.00,,,0.00,1.000000,,2013-10-28 04:53:00,
2013-10-27 22:04:00,71.0,24.0,-100.00,South,174,2.0,10.0,17,0.00,,,0.00,1.000000,,2013-10-28 05:04:00,
2013-10-27 22:43:00,66.0,26.0,-100.00,ESE,119,4.0,6.0,22,0.00,,,0.00,1.000000,,2013-10-28 05:43:00,
2013-10-27 22:53:00,66.0,26.0,-100.00,ESE,119,4.0,6.0,22,0.00,,,0.00,1.000000,,2013-10-28 05:53:00,
2013-10-27 23:02:00,66.0,26.0,-100.00,ESE,119,4.0,6.0,22,0.00,,,0.00,1.000000,,2013-10-28 06:02:00,
2013-10-27 23:43:00,60.0,21.0,-100.00,North,4,3.0,4.0,22,0.00,,,0.00,1.000000,,2013-10-28 06:43:00,
2013-10-27 23:52:00,60.0,21.0,-100.00,North,4,3.0,4.0,22,0.00,,,0.00,1.000000,,2013-10-28 06:52:00,